This demonstration page uses our WeatherBlox Daily Observations layout. Learn more.

Left ArrowRight Arrow

Hourly Observations for April 8, 2019

Temp ( °F °C ) Dew Point ( °F °C ) Humidity (%) Winds ( mph kmh ) Pressure ( in mb ) Visibility ( mi km ) Precip ( " mm )
12:53 am 00:53 Clear 62 16.7 44 6.7 52 52 ENE 7 11 29.94 1014 10 16 0.00 0.00
1:53 am 01:53 Clear 59 15 46 7.8 62 62 ENE 6 9 29.95 1014 10 16 0.00 0.00
2:53 am 02:53 Clear 56 13.3 45 7.2 67 67 SE 3 6 29.93 1014 10 16 0.00 0.00
3:53 am 03:53 Clear 52 11.1 45 7.2 77 77 Calm 29.94 1014 10 16 0.00 0.00
4:53 am 04:53 Clear 50 10 43 6.1 77 77 N 3 6 29.96 1015 10 16 0.00 0.00
5:53 am 05:53 Clear 50 10 44 6.7 80 80 W 5 7 29.98 1015 10 16 0.00 0.00
6:53 am 06:53 Clear 47 8.3 41 5 80 80 NW 5 7 30.00 1016 10 16 0.00 0.00
7:53 am 07:53 Sunny 47 8.3 42 5.6 83 83 N 7 11 30.02 1017 10 16 0.00 0.00
8:53 am 08:53 Sunny 57 13.9 48 8.9 72 72 N 5 7 30.04 1017 10 16 0.00 0.00
9:53 am 09:53 Sunny 66 18.9 51 10.6 59 59 Calm 30.02 1017 10 16 0.00 0.00
10:53 am 10:53 Sunny 70 21.1 52 11.1 53 53 WSW 5 7 30.01 1016 10 16 0.00 0.00
11:53 am 11:53 Sunny 74 23.3 50 10 43 43 Calm 30.00 1016 10 16 0.00 0.00
12:53 pm 12:53 Sunny 80 26.7 46 7.8 30 30 S 6 9 29.98 1015 10 16 0.00 0.00
1:53 pm 13:53 Sunny 84 28.9 38 3.3 19 19 SSW 10 17 29.95 1014 10 16 0.00 0.00
2:53 pm 14:53 Sunny 85 29.4 32 0 15 15 VRB 5 7 29.93 1014 10 16 0.00 0.00
3:53 pm 15:53 Sunny 87 30.6 27 -2.8 11 11 VRB 5 7 29.90 1013 10 16 0.00 0.00
4:53 pm 16:53 Sunny 89 31.7 25 -3.9 10 10 Calm 29.86 1011 10 16 0.00 0.00
5:53 pm 17:53 Sunny 89 31.7 25 -3.9 10 10 NW 5 7 29.85 1011 10 16 0.00 0.00
6:53 pm 18:53 Sunny 88 31.1 27 -2.8 11 11 WSW 7 11 29.85 1011 10 16 0.00 0.00
7:53 pm 19:53 Sunny 84 28.9 27 -2.8 12 12 SSE 7 11 29.85 1011 10 16 0.00 0.00
8:53 pm 20:53 Clear 76 24.4 27 -2.8 16 16 SSE 7 11 29.86 1011 10 16 0.00 0.00
9:53 pm 21:53 Clear 73 22.8 27 -2.8 18 18 SE 9 15 29.88 1012 10 16 0.00 0.00
10:53 pm 22:53 Clear 69 20.6 29 -1.7 22 22 SE 10 17 29.89 1012 10 16 0.00 0.00
11:53 pm 23:53 Clear 65 18.3 31 -0.6 28 28 SSE 7 11 29.89 1012 10 16 0.00 0.00

Powered by AerisWeather